Location: Bijele Vode
(45.2833°N, 16.2000°E)
Time: 13:52:00
(UTC+00:00)

Cosmos 2150 Rocket - Pass Details

Date: 18 September 2020
Orbit: 749 x 808 km, 74.0° (Epoch: 29 October)

Event Time Altitude Azimuth Distance (km) Brightness Sun altitude
Rises 18:45:15 0° 194° (SSW) 3,255 7.2 -18.9°
Reaches altitude 10° 18:47:36 10° 192° (SSW) 2,340 6.4 -19.2°
Maximum altitude 18:52:55 75° 109° (ESE) 827 3.9 -20.1°
Drops below altitude 10° 18:58:21 10° 24° (NNE) 2,389 6.6 -21.0°
Sets 19:00:47 0° 23° (NNE) 3,329 7.3 -21.4°
